Location: Callao
(39.8979°N, 113.7141°W)
Time: 17:16:39
(UTC+00:00)

AO-91 - Pass Details

Date: 20 May 2021
Orbit: 453 x 808 km, 97.7° (Epoch: 19 June)

Event Time Altitude Azimuth Distance (km) Brightness Sun altitude
Rises 08:33:05 0° 347° (NNW) 2,873 ? -28.3°
Reaches altitude 10° 08:36:45 10° 313° (NW) 2,058 ? -28.1°
Maximum altitude 08:38:08 11° 295° (WNW) 2,002 ? -28.1°
Enters shadow 08:38:08 11° 295° (WNW) 2,003 ? -28.1°
